Regional Weather Roundup
Issued by NWS

Home | Current Version | Previous Version | Text Only | Print | Product List | Glossary Off
Versions: 1 2 3 4 5 6 7 8 9 10 11 12 13 14 15 16 17 18 19 20 21 22 23 24 25 26 27

000
ASUS45 KCYS 210410
RWRWY

WYOMING REGIONAL WEATHER ROUNDUP
NATIONAL WEATHER SERVICE CHEYENNE WY
1000 PM MDT FRI OCT 20 2017

NOTE:  "FAIR" INDICATES FEW OR NO CLOUDS BELOW 12,000 FEET
WITH NO SIGNIFICANT WEATHER AND/OR OBSTRUCTIONS TO VISIBILITY.

WYZ001-210500-
YELLOWSTONE NATIONAL PARK

CITY           SKY/WX    TMP DP  RH WIND       PRES   REMARKS
LK YELLOWSTONE   N/A     25  21  85 VRB3      29.78R
W YELLOWSTONE  NOT AVBL

$$
WYZ002>013-054>058-071-098>099-210500-
NORTHERN WYOMING

CITY           SKY/WX    TMP DP  RH WIND       PRES   REMARKS
JACKSON        CLOUDY    30  28  92 SW10      29.81S WCI  21
CODY           FAIR      42  23  46 W7        29.68R
GREYBULL       MOCLDY    49  24  37 NW21      29.62R
WORLAND        FAIR      47  19  33 N7        29.63R
SHERIDAN       MOCLDY    47  26  44 NW35G45   29.58R
BUFFALO        FAIR      45  26  47 N30G41    29.56R
GILLETTE       CLOUDY    57  32  38 NW18G31   29.52R
HULETT         CLOUDY    61  36  39 NW9G23    29.49R
NEWCASTLE      FAIR      55  28  35 NW6       29.48R

$$
WYZ014>020-022>026-101>103-210500-
CENTRAL WYOMING

CITY           SKY/WX    TMP DP  RH WIND       PRES   REMARKS
BIG PINEY      MOCLDY    27  19  72 NW7       29.85R WCI  19
PINEDALE       MOCLDY    28  23  80 W6        29.83S WCI  22
DUBOIS         LGT SNOW  28  23  80 MISG      29.73R VSB 3/4
LANDER         FAIR      41  11  29 N8G16     29.69R
RIVERTON       FAIR      39  13  34 NW12      29.70R WCI  32
CASPER         CLOUDY    49  21  33 SW23G30   29.66R
DOUGLAS        CLOUDY    52  33  48 W28G37    29.61R

$$
WYZ021-027>030-104>119-210500-
SOUTHERN WYOMING

CITY           SKY/WX    TMP DP  RH WIND       PRES   REMARKS
EVANSTON       FAIR      29  21  72 W20       29.91R WCI  16
FORT BRIDGER   FAIR      30  26  83 W10       29.93R WCI  21
ROCK SPRINGS   FAIR      32  24  72 W20G30    29.86R WCI  20
DIXON          LGT SNOW  33  32  96 W3G17     29.92R
RAWLINS        CLOUDY    36  23  59 W24G32    29.79R WCI  24
SARATOGA       LGT SNOW  32  32 100 W13G26    29.86R VSB 1   WCI  22
LARAMIE        CLOUDY    40  31  70 NW8       29.73R WCI  34
CHEYENNE       MOCLDY    47  34  60 NW18G31   29.61F
TORRINGTON     MOCLDY    62  34  35 W24G30    29.52S
PINE BLUFFS    MOCLDY    55  32  41 NW21G31   29.58R

$$




USA.gov is the U.S. government's official web portal to all federal, state and local government web resources and services.